Time,TemperatureF,DewpointF,PressureIn,WindDirection,WindDirectionDegrees,WindSpeedMPH,WindSpeedGustMPH,Humidity,HourlyPrecipIn,Conditions,Clouds,dailyrainin,SoftwareType,DateUTC
2013-04-14 00:00:00,53.1,34.4,29.90,West,270,1.0,6.0,49,0.00,,,-99.99,WeatherLink 5.6,2013-04-14 04:00:00,
2013-04-14 00:30:00,52.4,34.3,29.89,West,270,1.0,9.0,50,0.00,,,-99.99,WeatherLink 5.6,2013-04-14 04:30:00,
2013-04-14 01:00:00,52.3,34.2,29.89,West,270,2.0,9.0,50,0.00,,,-99.99,WeatherLink 5.6,2013-04-14 05:00:00,
2013-04-14 01:30:00,52.1,33.5,29.88,West,270,2.0,9.0,49,0.00,,,-99.99,WeatherLink 5.6,2013-04-14 05:30:00,
2013-04-14 02:00:00,52.4,33.3,29.88,West,270,2.0,10.0,48,0.00,,,-99.99,WeatherLink 5.6,2013-04-14 06:00:00,
2013-04-14 02:30:00,51.9,33.3,29.88,WNW,292,0.0,5.0,49,0.00,,,-99.99,WeatherLink 5.6,2013-04-14 06:30:00,
2013-04-14 03:00:00,52.5,33.9,29.88,WNW,292,2.0,7.0,49,0.00,,,-99.99,WeatherLink 5.6,2013-04-14 07:00:00,
2013-04-14 03:30:00,51.2,33.2,29.89,WNW,292,0.0,1.0,50,0.00,,,-99.99,WeatherLink 5.6,2013-04-14 07:30:00,
2013-04-14 04:00:00,51.4,33.4,29.88,WSW,247,0.0,1.0,50,0.00,,,-99.99,WeatherLink 5.6,2013-04-14 08:00:00,
2013-04-14 04:30:00,51.7,33.1,29.88,SSW,202,0.0,2.0,49,0.00,,,-99.99,WeatherLink 5.6,2013-04-14 08:30:00,
2013-04-14 05:00:00,51.0,33.5,29.89,South,180,0.0,2.0,51,0.00,,,-99.99,WeatherLink 5.6,2013-04-14 09:00:00,
2013-04-14 05:30:00,49.9,33.0,29.89,SSW,202,0.0,1.0,52,0.00,,,-99.99,WeatherLink 5.6,2013-04-14 09:30:00,
2013-04-14 06:00:00,50.7,33.2,29.89,South,180,0.0,2.0,51,0.00,,,-99.99,WeatherLink 5.6,2013-04-14 10:00:00,
2013-04-14 06:30:00,50.9,32.9,29.89,South,180,1.0,3.0,50,0.00,,,-99.99,WeatherLink 5.6,2013-04-14 10:30:00,
2013-04-14 07:00:00,50.6,33.1,29.89,SSE,157,1.0,2.0,51,0.00,,,-99.99,WeatherLink 5.6,2013-04-14 11:00:00,
2013-04-14 07:30:00,52.4,33.3,29.91,SSE,157,1.0,3.0,48,0.00,,,-99.99,WeatherLink 5.6,2013-04-14 11:30:00,
2013-04-14 08:00:00,54.3,35.0,29.91,East,90,0.0,1.0,48,0.00,,,-99.99,WeatherLink 5.6,2013-04-14 12:00:00,
2013-04-14 08:30:00,56.6,36.6,29.90,ESE,112,0.0,1.0,47,0.00,,,-99.99,WeatherLink 5.6,2013-04-14 12:30:00,
2013-04-14 09:00:00,57.2,35.5,29.90,SE,135,1.0,4.0,44,0.00,,,-99.99,WeatherLink 5.6,2013-04-14 13:00:00,
2013-04-14 09:30:00,57.3,36.7,29.90,SE,135,3.0,6.0,46,0.00,,,-99.99,WeatherLink 5.6,2013-04-14 13:30:00,
2013-04-14 10:00:00,58.7,37.4,29.90,SE,135,4.0,11.0,45,0.00,,,-99.99,WeatherLink 5.6,2013-04-14 14:00:00,
2013-04-14 10:30:00,60.0,38.0,29.90,SE,135,5.0,11.0,44,0.00,,,-99.99,WeatherLink 5.6,2013-04-14 14:30:00,
2013-04-14 11:00:00,61.9,37.3,29.88,SE,135,6.0,12.0,40,0.00,,,-99.99,WeatherLink 5.6,2013-04-14 15:00:00,
2013-04-14 11:30:00,63.5,38.7,29.87,SE,135,5.0,14.0,40,0.00,,,-99.99,WeatherLink 5.6,2013-04-14 15:30:00,
2013-04-14 12:00:00,64.6,41.6,29.85,SE,135,7.0,15.0,43,0.00,,,-99.99,WeatherLink 5.6,2013-04-14 16:00:00,
2013-04-14 12:30:00,66.1,41.1,29.85,SSE,157,5.0,18.0,40,0.00,,,-99.99,WeatherLink 5.6,2013-04-14 16:30:00,
2013-04-14 13:00:00,66.6,40.9,29.84,SSE,157,5.0,17.0,39,0.00,,,-99.99,WeatherLink 5.6,2013-04-14 17:00:00,
2013-04-14 13:30:00,67.8,40.6,29.83,South,180,8.0,20.0,37,0.00,,,-99.99,WeatherLink 5.6,2013-04-14 17:30:00,
2013-04-14 14:00:00,68.0,40.7,29.81,South,180,10.0,24.0,37,0.00,,,-99.99,WeatherLink 5.6,2013-04-14 18:00:00,
2013-04-14 14:30:00,68.6,42.0,29.79,South,180,11.0,24.0,38,0.00,,,-99.99,WeatherLink 5.6,2013-04-14 18:30:00,
2013-04-14 15:00:00,68.9,40.8,29.79,South,180,7.0,19.0,36,0.00,,,-99.99,WeatherLink 5.6,2013-04-14 19:00:00,
2013-04-14 15:30:00,68.3,41.0,29.79,South,180,9.0,24.0,37,0.00,,,-99.99,WeatherLink 5.6,2013-04-14 19:30:00,
2013-04-14 16:00:00,68.3,41.7,29.79,South,180,7.0,19.0,38,0.00,,,-99.99,WeatherLink 5.6,2013-04-14 20:00:00,
2013-04-14 16:30:00,68.2,42.3,29.78,South,180,7.0,18.0,39,0.00,,,-99.99,WeatherLink 5.6,2013-04-14 20:30:00,
2013-04-14 17:00:00,67.9,42.0,29.78,South,180,8.0,21.0,39,0.00,,,-99.99,WeatherLink 5.6,2013-04-14 21:00:00,
2013-04-14 17:30:00,67.0,41.2,29.78,South,180,8.0,19.0,39,0.00,,,-99.99,WeatherLink 5.6,2013-04-14 21:30:00,
2013-04-14 18:00:00,66.3,40.6,29.78,South,180,12.0,24.0,39,0.00,,,-99.99,WeatherLink 5.6,2013-04-14 22:00:00,
2013-04-14 18:30:00,65.3,40.3,29.78,South,180,12.0,28.0,40,0.00,,,-99.99,WeatherLink 5.6,2013-04-14 22:30:00,
2013-04-14 19:00:00,64.0,40.4,29.79,South,180,9.0,22.0,42,0.00,,,-99.99,WeatherLink 5.6,2013-04-14 23:00:00,
2013-04-14 19:30:00,63.2,40.3,29.79,South,180,9.0,23.0,43,0.00,,,-99.99,WeatherLink 5.6,2013-04-14 23:30:00,
2013-04-14 20:00:00,62.5,39.1,29.79,South,180,6.0,20.0,42,0.00,,,-99.99,WeatherLink 5.6,2013-04-15 00:00:00,
2013-04-14 20:30:00,61.8,39.1,29.78,South,180,6.0,15.0,43,0.00,,,-99.99,WeatherLink 5.6,2013-04-15 00:30:00,
2013-04-14 21:00:00,61.1,39.6,29.79,South,180,7.0,20.0,45,0.00,,,-99.99,WeatherLink 5.6,2013-04-15 01:00:00,
2013-04-14 21:30:00,60.3,41.0,29.81,South,180,7.0,20.0,49,0.00,,,-99.99,WeatherLink 5.6,2013-04-15 01:30:00,
2013-04-14 22:00:00,58.7,41.6,29.83,SSE,157,12.0,27.0,53,0.00,,,-99.99,WeatherLink 5.6,2013-04-15 02:00:00,
2013-04-14 22:30:00,55.4,43.0,29.83,SSE,157,10.0,28.0,63,0.00,,,-99.99,WeatherLink 5.6,2013-04-15 02:30:00,
2013-04-14 23:00:00,53.2,44.4,29.84,ESE,112,4.0,17.0,72,0.01,,,-99.99,WeatherLink 5.6,2013-04-15 03:00:00,
2013-04-14 23:30:00,52.4,44.7,29.83,SE,135,1.0,5.0,75,0.02,,,-99.99,WeatherLink 5.6,2013-04-15 03:30:00,